COSMOS 1275 DEB, 42171

Orbit data source: Space-Track

COSMOS 1275 DEB, 42171 is space debris in LEO originally from a launch on Thu, 04 Jun 1981 UTC launched from the Plesetsk Missile And Space Complex (PKMTR). Debris objects in space refer to the collection of defunct objects orbiting the Earth. Examples of debris include non-operational satellites, rocket bodies, and fragments generated from explosions, collisions, or faulty payload assembly.

Loading next visibility...
COSMOS 1275 DEB details
Identifier
42171, 1981-053SK
Orbit
LEO
Last TLE update1 day ago
Origin
Flag of CISGUKOS (CIS)
ManufacturerUnknown
MissionSpacecraft
Bus & MotorUnknown
MassUnknown
Launch date (UTC)
1981-06-04 (43 years ago)
Launch vehicleUnknown
Launch site
Plesetsk Missile And Space Complex (PKMTR)
Object type
Payload
Rocket body
Debris
Shape & HBRUnknown
Radar Cross SectionSmall (<0.1 m²)

Expand to show TLE details & history

TLE from 1 day ago
0 COSMOS 1275 DEB
1 42171U 81053SK  24336.17205124  .00007261  00000-0  38887-2 0  9994
2 42171  83.0808 305.7156 0037361 248.1087 111.6116 14.12602203 69307
Epoch: 2024-12-01T04:07Z
Definitive object data (Epoch: 2024-12-01T04:07:45.227Z)
Latitude-0.00003°
Longitude173.26307°
Altitude863.472 km
Speed7.416 km/s
True Right ascension20h 22m 51s
True Declination0° 00' 00"
Sunlit
Object was in daylight at TLE epoch
Visualization TLE readout
Latitude-49.08835°
Longitude164.27731°
Altitude858.535 km
Speed7.428 km/s
Apparent Right ascension20h 01m 50s
Apparent Declination-44° 40' 20"
Sunlit
Object is in daylight
Visualization observer readout
Local Sidereal Time08:16:17
Azimuth151.862° SSE
Elevation-84.545°
Doppler factor1
Orbital elements
Apogee altitude874.568 km
Perigee altitude820.576 km
Semi-major axis7,225.709 km
Eccentricity0.0037361
Inclination83.0808°
RAAN305.7156°
Arg. of periapsis248.1087°
True anomaly112.00894°
Mean anomaly111.6116°
Eccentric anomaly111.81034°
Mean motion3.53364 °/min
BSTAR0.0038887
Orbital period101.88 mins
Loading maneuver chart data...
Loading historical data...
Loading historical data...
Loading historical data...
Loading historical data...
Loading historical data...
Loading historical data...
Loading historical data...

COSMOS 1275 DEB Visibility forecast

Observer location: undefined°, undefined

Span
Click to sort rows by Start time (UTC) header in descending order
Start Az.
Max El. time (UTC)
Max El. Az.
Max El.
End time (UTC)
End Az.
7 mins2024-12-02 11:19:43.382Z319.421° NNW2024-12-02 11:23:43.382Z273.085° WNW18.453°2024-12-02 11:26:43.382Z237.423° WSW
10 mins2024-12-02 22:44:43.382Z182.818° SSW2024-12-02 22:48:43.382Z164.744° S44.294°2024-12-02 22:54:43.382Z8.002° NNE
8 mins2024-12-03 09:25:43.382Z14.849° NNE2024-12-03 09:28:43.382Z63.272° ENE35.223°2024-12-03 09:33:43.382Z148.247° SSE
|